| time (UTC) | temp F | wind direction | speed MPH | gust MPH | rain 1hr in | rain 24hr in | rain mn in | humidity % | barometer mb |
| 20260902211529 | 99 | 159 | 4.0 | 14.0 | 0.00 | 0.00 | 0.00 | 35 | 1008.1 |
| 20260902210032 | 99 | 140 | 7.0 | 14.0 | 0.00 | 0.00 | 0.00 | 36 | 1008.2 |
| 20260902204526 | 99 | 166 | 9.0 | 15.0 | 0.00 | 0.00 | 0.00 | 34 | 1008.4 |
| 20260902203032 | 98 | 159 | 12.0 | 17.0 | 0.00 | 0.00 | 0.00 | 37 | 1008.7 |
| 20260902201520 | 98 | 203 | 7.0 | 14.0 | 0.00 | 0.00 | 0.00 | 38 | 1008.9 |
| 20260902200017 | 99 | 172 | 9.0 | 18.0 | 0.00 | 0.00 | 0.00 | 39 | 1009.1 |
| 20260902194514 | 99 | 141 | 7.0 | 14.0 | 0.00 | 0.00 | 0.00 | 40 | 1009.4 |
| 20260902193013 | 98 | 208 | 10.0 | 14.0 | 0.00 | 0.00 | 0.00 | 41 | 1009.6 |
| 20260902191520 | 98 | 129 | 8.0 | 14.0 | 0.00 | 0.00 | 0.00 | 42 | 1009.7 |
| 20260902190009 | 98 | 139 | 9.0 | 15.0 | 0.00 | 0.00 | 0.00 | 40 | 1009.9 |
| 20260902184514 | 97 | 229 | 6.0 | 12.0 | 0.00 | 0.00 | 0.00 | 39 | 1010.1 |
| 20260902183005 | 98 | 158 | 5.0 | 12.0 | 0.00 | 0.00 | 0.00 | 41 | 1010.4 |
| 20260902181502 | 97 | 140 | 3.0 | 14.0 | 0.00 | 0.00 | 0.00 | 41 | 1010.7 |
| 20260902180059 | 96 | 156 | 6.0 | 13.0 | 0.00 | 0.00 | 0.00 | 44 | 1010.9 |
| 20260902174606 | 96 | 179 | 7.0 | 13.0 | 0.00 | 0.00 | 0.00 | 44 | 1011.1 |
| 20260902173054 | 95 | 172 | 0.0 | 12.0 | 0.00 | 0.00 | 0.00 | 47 | 1011.3 |
| 20260902171601 | 95 | 247 | 4.0 | 16.0 | 0.00 | 0.00 | 0.00 | 47 | 1011.5 |
| 20260902170050 | 94 | 220 | 4.0 | 12.0 | 0.00 | 0.00 | 0.00 | 48 | 1011.8 |
| 20260902164546 | 93 | 208 | 2.0 | 12.0 | 0.00 | 0.00 | 0.00 | 49 | 1011.9 |
| 20260902163100 | 93 | 198 | 0.0 | 12.0 | 0.00 | 0.00 | 0.00 | 52 | 1011.9 |
| 20260902161542 | 92 | 181 | 7.0 | 13.0 | 0.00 | 0.00 | 0.00 | 52 | 1012.1 |
| 20260902160039 | 91 | 223 | 5.0 | 12.0 | 0.00 | 0.00 | 0.00 | 53 | 1012.1 |
| 20260902154537 | 91 | 195 | 2.0 | 10.0 | 0.00 | 0.00 | 0.00 | 54 | 1012.2 |
| 20260902153033 | 89 | 224 | 9.0 | 13.0 | 0.00 | 0.00 | 0.00 | 55 | 1012.2 |
| 20260902151530 | 89 | 211 | 8.0 | 15.0 | 0.00 | 0.00 | 0.00 | 57 | 1012.2 |
| 20260902150028 | 88 | 160 | 3.0 | 13.0 | 0.00 | 0.00 | 0.00 | 59 | 1012.1 |
| 20260902144532 | 87 | 161 | 6.0 | 12.0 | 0.00 | 0.00 | 0.00 | 60 | 1012.2 |
| 20260902143024 | 85 | 218 | 7.0 | 13.0 | 0.00 | 0.00 | 0.00 | 61 | 1012.3 |
| 20260902141518 | 84 | 162 | 7.0 | 12.0 | 0.00 | 0.00 | 0.00 | 63 | 1012.3 |
| 20260902140014 | 83 | 155 | 5.0 | 12.0 | 0.00 | 0.00 | 0.00 | 65 | 1012.2 |
| 20260902134512 | 82 | 165 | 7.0 | 12.0 | 0.00 | 0.00 | 0.00 | 66 | 1012.3 |
| 20260902133010 | 81 | 163 | 6.0 | 13.0 | 0.00 | 0.00 | 0.00 | 68 | 1012.2 |
| 20260902131510 | 80 | 153 | 0.0 | 1.0 | 0.00 | 0.00 | 0.00 | 70 | 1012.1 |
| 20260902130109 | 79 | 150 | 0.0 | 1.0 | 0.00 | 0.00 | 0.00 | 71 | 1012.1 |
| 20260902124507 | 79 | 145 | 0.0 | 0.0 | 0.00 | 0.00 | 0.00 | 71 | 1012.0 |
| 20260902123005 | 78 | 142 | 0.0 | 0.0 | 0.00 | 0.00 | 0.00 | 71 | 1011.7 |
| 20260902121503 | 78 | 149 | 0.0 | 0.0 | 0.00 | 0.00 | 0.00 | 71 | 1011.6 |
| 20260902120002 | 78 | 157 | 0.0 | 0.0 | 0.00 | 0.00 | 0.00 | 70 | 1011.5 |
| 20260902114559 | 79 | 154 | 0.0 | 0.0 | 0.00 | 0.00 | 0.00 | 69 | 1011.3 |
| 20260902113057 | 79 | 154 | 0.0 | 0.0 | 0.00 | 0.00 | 0.00 | 69 | 1011.3 |
| 20260902111603 | 79 | 157 | 0.0 | 0.0 | 0.00 | 0.00 | 0.00 | 68 | 1011.2 |
| 20260902110052 | 80 | 145 | 0.0 | 6.0 | 0.00 | 0.00 | 0.00 | 67 | 1011.2 |
| 20260902104549 | 80 | 175 | 0.0 | 0.0 | 0.00 | 0.00 | 0.00 | 66 | 1011.2 |
| 20260902103047 | 80 | 160 | 0.0 | 0.0 | 0.00 | 0.00 | 0.00 | 65 | 1011.1 |
| 20260902101544 | 81 | 158 | 0.0 | 0.0 | 0.00 | 0.00 | 0.00 | 65 | 1011.1 |
| 20260902100048 | 81 | 154 | 0.0 | 10.0 | 0.00 | 0.00 | 0.00 | 64 | 1011.0 |
| 20260902094537 | 81 | 157 | 0.0 | 1.0 | 0.00 | 0.00 | 0.00 | 64 | 1011.0 |
| 20260902093036 | 81 | 151 | 1.0 | 8.0 | 0.00 | 0.00 | 0.00 | 62 | 1011.0 |
| 20260902091534 | 81 | 157 | 2.0 | 8.0 | 0.00 | 0.00 | 0.00 | 61 | 1011.0 |
| 20260902090034 | 81 | 148 | 0.0 | 1.0 | 0.00 | 0.00 | 0.00 | 62 | 1010.9 |
| 20260902084532 | 80 | 154 | 0.0 | 0.0 | 0.00 | 0.00 | 0.00 | 63 | 1010.8 |
| 20260902083031 | 80 | 158 | 0.0 | 0.0 | 0.00 | 0.00 | 0.00 | 64 | 1010.8 |
| 20260902081529 | 80 | 154 | 0.0 | 0.0 | 0.00 | 0.00 | 0.00 | 63 | 1010.7 |
| 20260902080029 | 80 | 154 | 0.0 | 0.0 | 0.00 | 0.00 | 0.00 | 63 | 1010.6 |
| 20260902074527 | 81 | 143 | 0.0 | 0.0 | 0.00 | 0.00 | 0.00 | 61 | 1010.5 |
| 20260902073025 | 81 | 159 | 0.0 | 0.0 | 0.00 | 0.00 | 0.00 | 60 | 1010.6 |
| 20260902071525 | 82 | 159 | 0.0 | 2.0 | 0.00 | 0.00 | 0.00 | 59 | 1010.6 |
| 20260902070024 | 81 | 150 | 0.0 | 1.0 | 0.00 | 0.00 | 0.00 | 59 | 1010.6 |
| 20260902064527 | 82 | 157 | 0.0 | 0.0 | 0.00 | 0.00 | 0.00 | 59 | 1010.6 |
| 20260902063036 | 81 | 164 | 0.0 | 0.0 | 0.00 | 0.00 | 0.00 | 59 | 1010.7 |
| 20260902061523 | 81 | 152 | 0.0 | 0.0 | 0.00 | 0.00 | 0.00 | 59 | 1010.6 |
| 20260902060021 | 81 | 147 | 0.0 | 0.0 | 0.00 | 0.00 | 0.00 | 58 | 1010.6 |
| 20260902054525 | 81 | 142 | 0.0 | 0.0 | 0.00 | 0.00 | 0.00 | 59 | 1010.6 |
| 20260902053017 | 82 | 142 | 0.0 | 0.0 | 0.00 | 0.00 | 0.00 | 57 | 1010.6 |
| 20260902051514 | 82 | 142 | 0.0 | 0.0 | 0.00 | 0.00 | 0.00 | 56 | 1010.6 |
| 20260902050036 | 83 | 135 | 0.0 | 0.0 | 0.00 | 0.00 | 0.00 | 54 | 1010.6 |
| 20260902044510 | 83 | 113 | 0.0 | 0.0 | 0.00 | 0.00 | 0.00 | 53 | 1010.6 |
| 20260902043025 | 84 | 129 | 0.0 | 0.0 | 0.00 | 0.00 | 0.00 | 53 | 1010.7 |
| 20260902041512 | 83 | 137 | 0.0 | 0.0 | 0.00 | 0.00 | 0.00 | 54 | 1010.6 |
| 20260902040010 | 84 | 138 | 0.0 | 0.0 | 0.00 | 0.00 | 0.00 | 53 | 1010.6 |
| 20260902034509 | 84 | 120 | 0.0 | 0.0 | 0.00 | 0.00 | 0.00 | 53 | 1010.7 |
| 20260902033008 | 86 | 126 | 0.0 | 0.0 | 0.00 | 0.00 | 0.00 | 49 | 1010.6 |
| 20260902031508 | 86 | 120 | 0.0 | 0.0 | 0.00 | 0.00 | 0.00 | 48 | 1010.5 |
| 20260902030007 | 87 | 132 | 0.0 | 0.0 | 0.00 | 0.00 | 0.00 | 46 | 1010.3 |
| 20260902024506 | 88 | 130 | 0.0 | 0.0 | 0.00 | 0.00 | 0.00 | 45 | 1010.0 |
| 20260902023003 | 89 | 130 | 0.0 | 0.0 | 0.00 | 0.00 | 0.00 | 44 | 1009.8 |
| 20260902021503 | 89 | 131 | 0.0 | 0.0 | 0.00 | 0.00 | 0.00 | 43 | 1009.5 |
| 20260902020004 | 90 | 133 | 0.0 | 0.0 | 0.00 | 0.00 | 0.00 | 43 | 1009.3 |
| 20260902014500 | 90 | 128 | 0.0 | 0.0 | 0.00 | 0.00 | 0.00 | 41 | 1009.3 |
| 20260902013002 | 91 | 142 | 0.0 | 0.0 | 0.00 | 0.00 | 0.00 | 40 | 1009.1 |
| 20260902011601 | 92 | 142 | 0.0 | 0.0 | 0.00 | 0.00 | 0.00 | 39 | 1009.1 |
| 20260902010100 | 92 | 142 | 0.0 | 0.0 | 0.00 | 0.00 | 0.00 | 38 | 1009.1 |
| 20260902004559 | 93 | 156 | 0.0 | 0.0 | 0.00 | 0.00 | 0.00 | 38 | 1009.0 |
| 20260902003058 | 94 | 138 | 0.0 | 0.0 | 0.00 | 0.00 | 0.00 | 36 | 1009.1 |
| 20260902001557 | 95 | 155 | 0.0 | 1.0 | 0.00 | 0.00 | 0.00 | 34 | 1009.1 |
| 20260902000056 | 96 | 152 | 0.0 | 6.0 | 0.00 | 0.00 | 0.00 | 32 | 1009.2 |
| 20260901234557 | 97 | 182 | 3.0 | 11.0 | 0.00 | 0.00 | 0.00 | 31 | 1009.3 |
| 20260901233055 | 98 | 147 | 5.0 | 12.0 | 0.00 | 0.00 | 0.00 | 31 | 1009.2 |
| 20260901231555 | 98 | 138 | 0.0 | 11.0 | 0.00 | 0.00 | 0.00 | 31 | 1009.4 |
| 20260901230104 | 99 | 219 | 0.0 | 14.0 | 0.00 | 0.00 | 0.00 | 30 | 1009.4 |
| 20260901224552 | 99 | 144 | 7.0 | 13.0 | 0.00 | 0.00 | 0.00 | 29 | 1009.3 |
| 20260901223103 | 99 | 171 | 6.0 | 12.0 | 0.00 | 0.00 | 0.00 | 30 | 1009.3 |
| 20260901221552 | 99 | 144 | 9.0 | 14.0 | 0.00 | 0.00 | 0.00 | 30 | 1009.4 |
| 20260901220108 | 99 | 174 | 1.0 | 11.0 | 0.00 | 0.00 | 0.00 | 30 | 1009.3 |
| 20260901214548 | 98 | 133 | 2.0 | 12.0 | 0.00 | 0.00 | 0.00 | 31 | 1009.5 |
| 20260901213051 | 100 | 168 | 9.0 | 14.0 | 0.00 | 0.00 | 0.00 | 30 | 1009.7 |